AB8KN-2 Weather Reports


Display with metric or nautical units.
time (UTC)temp
F
wind
direction
speed
MPH
gust
MPH
rain 1hr
in
rain 24hr
in
rain mn
in
humidity
%
barometer
mb
20260904212017 80 216 1.0 5.0 0.00 0.23 0.23 77 1012.2
20260904211018 80 234 0.0 2.0 0.00 0.23 0.23 77 1012.9
20260904210018 80 146 0.0 1.0 0.00 0.23 0.23 76 1013.8
20260904205018 81 34 0.0 1.0 0.00 0.23 0.23 75 1014.2
20260904204018 81 34 0.0 0.0 0.00 0.23 0.23 73 1014.6
20260904203015 82 196 0.0 1.0 0.00 0.23 0.23 72 1014.9
20260904202015 82 274 0.0 2.0 0.00 0.23 0.23 73 1015.4
20260904201015 82 239 0.0 2.0 0.00 0.23 0.23 72 1015.3
20260904200056 82 85 0.0 3.0 0.00 0.23 0.23 71 1015.6
20260904195016 84 89 1.0 4.0 0.00 0.23 0.23 70 1015.7
20260904194016 84 62 1.0 5.0 0.00 0.23 0.23 69 1015.8
20260904193016 83 29 1.0 5.0 0.00 0.23 0.23 71 1016.0
20260904192016 82 273 1.0 4.0 0.00 0.23 0.23 74 1016.0
20260904191017 83 29 2.0 5.0 0.00 0.23 0.23 75 1016.0
20260904190017 84 68 1.0 4.0 0.00 0.23 0.23 75 1016.1
20260904185017 83 308 1.0 5.0 0.00 0.23 0.23 76 1016.5
20260904184017 83 301 1.0 6.0 0.00 0.23 0.23 80 1016.6
20260904183017 82 305 1.0 4.0 0.00 0.23 0.23 83 1016.5
20260904182018 81 278 1.0 4.0 0.00 0.23 0.23 86 1016.4
20260904181038 80 306 0.0 4.0 0.00 0.23 0.23 88 1016.7
20260904180018 79 285 1.0 5.0 0.00 0.23 0.23 89 1016.5
20260904175018 78 284 0.0 2.0 0.00 0.23 0.23 92 1016.6
20260904174057 77 283 0.0 2.0 0.02 0.23 0.23 94 1016.7
20260904173015 77 282 1.0 2.0 0.06 0.23 0.23 94 1016.5
20260904172015 77 127 0.0 1.0 0.06 0.23 0.23 94 1016.6
20260904171015 77 77 1.0 2.0 0.06 0.23 0.23 94 1016.9
20260904170016 78 0.0 0.0 0.06 0.23 0.23 94 1017.1
20260904165038 78 252 0.0 2.0 0.13 0.23 0.23 94 1016.7
20260904164016 78 337 0.0 3.0 0.11 0.21 0.21 94 1017.4
20260904163016 79 279 1.0 3.0 0.07 0.17 0.17 93 1017.5
20260904162017 79 203 0.0 2.0 0.13 0.17 0.17 93 1017.4
20260904161017 79 279 1.0 3.0 0.13 0.17 0.17 93 1017.1
20260904160017 79 98 0.0 1.0 0.14 0.16 0.16 90 1017.0
20260904155017 80 272 0.0 2.0 0.08 0.10 0.10 89 1017.3
20260904154017 80 282 1.0 3.0 0.10 0.10 0.10 86 1017.2
20260904153037 81 287 0.0 2.0 0.10 0.10 0.10 85 1017.1
20260904152017 83 273 1.0 3.0 0.04 0.04 0.04 81 1016.8
20260904151017 83 263 0.0 2.0 0.03 0.03 0.03 80 1016.7
20260904150018 83 288 0.0 2.0 0.02 0.02 0.02 80 1016.7
20260904145018 84 267 0.0 2.0 0.02 0.02 0.02 75 1016.2
20260904144035 85 285 2.0 8.0 0.00 0.00 0.00 71 1016.4
20260904143015 86 273 1.0 5.0 0.00 0.00 0.00 71 1016.5
20260904142036 86 300 1.0 2.0 0.00 0.00 0.00 70 1016.3
20260904141016 85 280 0.0 2.0 0.00 0.00 0.00 70 1016.0
20260904140016 85 235 1.0 3.0 0.00 0.00 0.00 71 1015.9
20260904135016 84 196 0.0 2.0 0.00 0.00 0.00 72 1016.0
20260904134057 82 227 0.0 2.0 0.00 0.00 0.00 75 1016.1
20260904133016 81 202 0.0 3.0 0.00 0.00 0.00 77 1016.1
20260904132016 81 96 0.0 1.0 0.00 0.00 0.00 79 1016.2
20260904131017 81 71 1.0 3.0 0.00 0.00 0.00 79 1016.3
20260904130016 80 46 0.0 2.0 0.00 0.00 0.00 80 1016.4
20260904125017 80 76 0.0 2.0 0.00 0.00 0.00 82 1016.4
20260904124017 78 57 0.0 1.0 0.00 0.00 0.00 83 1016.5
20260904123017 76 91 0.0 2.0 0.00 0.00 0.00 87 1016.6
20260904122017 75 114 0.0 0.0 0.00 0.00 0.00 91 1016.5
20260904121017 74 69 0.0 2.0 0.00 0.00 0.00 92 1016.6
20260904120018 74 82 0.0 2.0 0.00 0.00 0.00 93 1016.4
20260904115018 73 99 0.0 2.0 0.00 0.00 0.00 95 1016.2
20260904114018 72 111 0.0 1.0 0.00 0.00 0.00 95 1016.0
20260904113015 72 197 0.0 1.0 0.00 0.00 0.00 95 1015.8
20260904112015 72 81 0.0 1.0 0.00 0.00 0.00 95 1015.8
20260904111015 72 0.0 0.0 0.00 0.00 0.00 95 1015.8
20260904110016 72 0.0 0.0 0.00 0.00 0.00 95 1015.6
20260904105036 72 117 0.0 0.0 0.00 0.00 0.00 95 1015.5
20260904104016 72 0.0 0.0 0.00 0.00 0.00 94 1015.4
20260904103016 72 124 0.0 1.0 0.00 0.00 0.00 94 1015.3
20260904102016 72 108 0.0 0.0 0.00 0.00 0.00 94 1015.2
20260904101017 72 0.0 0.0 0.00 0.00 0.00 94 1015.1
20260904100016 72 0.0 0.0 0.00 0.00 0.00 94 1015.1
20260904095037 72 104 0.0 1.0 0.00 0.00 0.00 93 1015.2
20260904094017 72 0.0 0.0 0.00 0.00 0.00 93 1015.1
20260904093057 73 0.0 0.0 0.00 0.00 0.00 93 1015.0
20260904092017 73 78 0.0 1.0 0.00 0.00 0.00 92 1015.0
20260904091017 73 55 0.0 0.0 0.00 0.00 0.00 92 1015.0
20260904090018 73 0.0 0.0 0.00 0.00 0.00 92 1015.0
20260904085016 73 0.0 0.0 0.00 0.00 0.00 92 1015.0
20260904084018 73 92 0.0 1.0 0.00 0.00 0.00 91 1015.0
20260904083035 73 88 0.0 1.0 0.00 0.00 0.00 91 1015.0
20260904082015 73 84 0.0 0.0 0.00 0.00 0.00 90 1015.1
20260904081015 73 39 0.0 1.0 0.00 0.00 0.00 90 1015.1
20260904080036 74 48 0.0 1.0 0.00 0.00 0.00 89 1015.2
20260904075016 74 65 0.0 0.0 0.00 0.00 0.00 89 1015.3
20260904074016 74 68 0.0 0.0 0.00 0.00 0.00 88 1015.3
20260904073016 75 64 0.0 0.0 0.00 0.00 0.00 87 1015.4
20260904072016 75 351 0.0 1.0 0.00 0.00 0.00 86 1015.4
20260904071036 75 0.0 0.0 0.00 0.00 0.00 85 1015.5
20260904070016 75 224 0.0 2.0 0.00 0.00 0.00 85 1015.5
20260904065017 75 14 0.0 0.0 0.00 0.00 0.00 84 1015.6
20260904064017 76 228 0.0 2.0 0.00 0.00 0.00 84 1015.6
20260904063017 76 224 0.0 1.0 0.00 0.00 0.00 83 1015.6
20260904062017 76 224 0.0 3.0 0.00 0.00 0.00 82 1015.6
20260904061017 76 221 0.0 1.0 0.00 0.00 0.00 82 1015.6
20260904060018 76 234 0.0 1.0 0.00 0.00 0.00 82 1015.7
20260904055038 76 0.0 0.0 0.00 0.00 0.00 82 1015.8
20260904054038 77 165 0.0 2.0 0.00 0.00 0.00 82 1015.9
20260904053015 77 0.0 0.0 0.00 0.00 0.00 81 1016.0
20260904052035 77 79 0.0 1.0 0.00 0.00 0.00 81 1016.0
20260904051016 77 0.0 0.0 0.00 0.00 0.00 81 1016.1
20260904050016 77 277 0.0 2.0 0.00 0.00 0.00 81 1016.1
20260904045016 77 95 0.0 2.0 0.00 0.00 0.00 81 1016.1
20260904044016 77 0.0 0.0 0.00 0.00 0.00 80 1016.1
20260904043016 77 0.0 0.0 0.00 0.00 0.00 80 1016.1
20260904042017 77 0.0 0.0 0.00 0.00 0.00 79 1015.9
20260904041017 77 0.0 0.0 0.00 0.00 0.00 79 1015.9
20260904040058 77 84 0.0 2.0 0.00 0.00 0.00 79 1016.0
20260904035057 77 67 0.0 2.0 0.00 0.00 0.00 79 1016.0
20260904034017 77 63 0.0 3.0 0.00 0.00 0.00 80 1016.1
20260904033018 77 0.0 0.0 0.00 0.00 0.00 79 1016.1
20260904032018 78 297 0.0 1.0 0.00 0.00 0.00 78 1016.2
20260904031018 78 0.0 0.0 0.00 0.00 0.00 77 1016.2
20260904030015 78 0.0 0.0 0.00 0.00 0.00 76 1016.2
20260904025015 79 310 0.0 1.0 0.00 0.00 0.00 76 1016.2
20260904024016 79 269 0.0 2.0 0.00 0.00 0.00 75 1016.4
20260904023015 80 298 0.0 2.0 0.00 0.00 0.00 74 1016.2
20260904022016 80 289 0.0 3.0 0.00 0.00 0.00 73 1016.2
20260904021016 80 310 0.0 3.0 0.00 0.00 0.00 73 1016.1
20260904020037 81 289 0.0 3.0 0.00 0.00 0.00 72 1015.8
20260904015016 81 285 0.0 2.0 0.00 0.00 0.00 72 1015.8
20260904014017 81 316 0.0 2.0 0.00 0.00 0.00 71 1015.7
20260904013017 82 298 0.0 3.0 0.00 0.00 0.00 70 1015.7
20260904012017 83 278 1.0 3.0 0.00 0.00 0.00 69 1015.5
20260904011017 85 305 1.0 3.0 0.00 0.00 0.00 67 1015.6
20260904010017 86 309 1.0 4.0 0.00 0.00 0.00 66 1015.6
20260904005017 87 0.0 0.0 0.00 0.00 0.00 65 1015.5
20260904004018 87 277 0.0 2.0 0.00 0.00 0.00 64 1015.4
20260904003018 87 241 0.0 1.0 0.00 0.00 0.00 63 1015.1
20260904002018 88 238 0.0 2.0 0.00 0.00 0.00 62 1015.1
20260904001055 89 294 0.0 3.0 0.00 0.00 0.00 61 1015.2
20260904000015 89 286 0.0 1.0 0.00 0.00 0.00 60 1015.3
20260903235016 90 286 1.0 3.0 0.00 0.00 0.00 59 1015.3
20260903234036 90 279 0.0 2.0 0.00 0.00 0.00 58 1015.3
20260903233016 91 282 1.0 4.0 0.00 0.00 0.00 57 1015.0
20260903232016 91 281 1.0 3.0 0.00 0.00 0.00 55 1014.8
20260903231016 91 272 1.0 4.0 0.00 0.00 0.00 54 1014.8
20260903230016 92 244 1.0 6.0 0.00 0.00 0.00 53 1014.8
20260903225017 92 249 1.0 4.0 0.00 0.00 0.00 53 1014.9
20260903224016 93 290 1.0 4.0 0.00 0.00 0.00 52 1014.9
20260903223017 93 257 2.0 7.0 0.00 0.00 0.00 52 1014.9
20260903222017 93 263 1.0 3.0 0.00 0.00 0.00 51 1014.9
20260903221018 93 255 2.0 8.0 0.00 0.00 0.00 50 1014.7
20260903220017 93 220 2.0 5.0 0.00 0.00 0.00 52 1014.6
20260903215018 94 210 2.0 6.0 0.00 0.00 0.00 52 1014.6
20260903214017 94 200 2.0 5.0 0.00 0.00 0.00 51 1014.5
20260903213018 94 206 1.0 4.0 0.00 0.00 0.00 51 1014.1